TimeCDT,TemperatureF,Dew PointF,Humidity,Sea Level PressureIn,VisibilityMPH,Wind Direction,Wind SpeedMPH,Gust SpeedMPH,PrecipitationIn,Events,Conditions,WindDirDegrees,DateUTC
12:21 AM,39.0,39.0,100,29.54,4.0,WNW,21.9,32.2,0.01,,Mostly Cloudy,300,2014-03-28 05:21:00
12:28 AM,39.0,39.0,100,29.55,3.0,WNW,21.9,29.9,0.01,,Scattered Clouds,290,2014-03-28 05:28:00
12:49 AM,37.4,37.4,100,29.59,5.0,WNW,17.3,29.9,0.01,,Mostly Cloudy,300,2014-03-28 05:49:00
12:52 AM,37.9,37.9,100,29.60,6.0,WNW,24.2,33.4,0.01,,Mostly Cloudy,300,2014-03-28 05:52:00
1:04 AM,37.9,37.9,100,29.60,10.0,NW,21.9,32.2,N/A,,Overcast,310,2014-03-28 06:04:00
1:52 AM,37.9,37.9,100,29.67,10.0,NW,20.7,31.1,N/A,,Overcast,310,2014-03-28 06:52:00
2:52 AM,37.0,36.0,96,29.73,10.0,NW,17.3,25.3,N/A,,Overcast,310,2014-03-28 07:52:00
3:52 AM,37.0,34.0,89,29.78,10.0,NW,15.0,23.0,N/A,,Overcast,310,2014-03-28 08:52:00
4:52 AM,36.0,33.1,89,29.84,10.0,NW,15.0,26.5,N/A,,Overcast,320,2014-03-28 09:52:00
5:52 AM,36.0,30.9,82,29.88,10.0,NW,17.3,25.3,N/A,,Overcast,320,2014-03-28 10:52:00
6:25 AM,35.1,30.9,85,29.89,10.0,NNW,12.7,21.9,N/A,,Overcast,330,2014-03-28 11:25:00
6:52 AM,35.1,30.9,85,29.92,10.0,NW,12.7,19.6,N/A,,Overcast,320,2014-03-28 11:52:00
7:52 AM,34.0,30.0,85,29.99,7.0,NW,12.7,-,N/A,,Overcast,320,2014-03-28 12:52:00
8:21 AM,34.0,28.9,82,29.97,7.0,NNW,9.2,-,N/A,,Overcast,340,2014-03-28 13:21:00
8:37 AM,34.0,28.9,82,29.99,8.0,NNW,10.4,-,N/A,,Overcast,330,2014-03-28 13:37:00
8:52 AM,34.0,28.9,82,30.00,7.0,North,6.9,-,N/A,,Overcast,360,2014-03-28 13:52:00
9:52 AM,34.0,28.9,82,30.04,8.0,NW,10.4,-,N/A,,Overcast,320,2014-03-28 14:52:00
10:52 AM,36.0,28.9,76,30.05,6.0,North,6.9,-,N/A,,Haze,360,2014-03-28 15:52:00
11:52 AM,36.0,28.9,76,30.10,7.0,West,5.8,-,N/A,,Overcast,280,2014-03-28 16:52:00
12:52 PM,37.9,28.9,70,30.11,6.0,North,8.1,-,N/A,,Haze,350,2014-03-28 17:52:00
1:52 PM,37.9,28.9,70,30.13,7.0,Variable,3.5,-,N/A,,Overcast,0,2014-03-28 18:52:00
2:52 PM,39.0,30.0,70,30.13,7.0,Calm,Calm,-,N/A,,Overcast,0,2014-03-28 19:52:00
3:52 PM,39.9,28.9,65,30.13,8.0,Calm,Calm,-,N/A,,Overcast,0,2014-03-28 20:52:00
4:52 PM,39.9,30.0,68,30.15,8.0,NW,4.6,-,N/A,,Overcast,320,2014-03-28 21:52:00
5:52 PM,39.9,30.0,68,30.15,9.0,WNW,6.9,-,N/A,,Overcast,300,2014-03-28 22:52:00
6:52 PM,39.0,30.0,70,30.18,8.0,NW,6.9,-,N/A,,Overcast,310,2014-03-28 23:52:00
7:52 PM,37.9,30.0,73,30.17,8.0,North,8.1,-,N/A,,Overcast,360,2014-03-29 00:52:00
8:52 PM,37.0,30.0,76,30.18,9.0,North,8.1,-,N/A,,Overcast,10,2014-03-29 01:52:00
9:52 PM,37.0,30.0,76,30.19,10.0,NW,4.6,-,N/A,,Overcast,320,2014-03-29 02:52:00
10:23 PM,36.0,28.9,76,30.16,10.0,North,5.8,-,N/A,,Scattered Clouds,360,2014-03-29 03:23:00
10:43 PM,36.0,28.9,76,30.17,10.0,Calm,Calm,-,N/A,,Mostly Cloudy,0,2014-03-29 03:43:00
10:52 PM,35.1,28.9,78,30.19,10.0,North,3.5,-,N/A,,Overcast,360,2014-03-29 03:52:00
11:52 PM,35.1,30.0,82,30.22,8.0,West,3.5,-,N/A,,Overcast,260,2014-03-29 04:52:00